When you browse on this site, cookies collect data to enhance your experience and personalize the content and advertising you see.
Visit our Privacy Policy to learn more. By continuing to use the site, you agree to this use of cookies and data.
  • In Schweiz
  • Länderverzeichnis
  • Für 7 Tage
  • Wassertemperatur
  • Wetterkarte
  • Widgets
  • user-avatar
    Anmelden

    Stündliche Wetter Kaposvár

    Heute, 19 September, Donnerstag

    Zeit Temperatur Niederschläge Wind Luftdruck Luftfeuchtigkeit
    00:00 +11°C° 0 mm 1 m/S 753 mmHg 63%
    01:00 +9°C° 0 mm 0 m/S 753 mmHg 63%
    02:00 +10°C° 0 mm 1 m/S 753 mmHg 59%
    03:00 +10°C° 0 mm 1 m/S 753 mmHg 55%
    04:00 +10°C° 0 mm 1 m/S 752 mmHg 50%
    05:00 +11°C° 0 mm 1 m/S 753 mmHg 49%
    06:00 +12°C° 0 mm 2 m/S 753 mmHg 47%
    07:00 +13°C° 0 mm 2 m/S 753 mmHg 45%
    08:00 +15°C° 0 mm 2 m/S 753 mmHg 42%
    09:00 +16°C° 0 mm 3 m/S 754 mmHg 39%
    10:00 +18°C° 0 mm 4 m/S 754 mmHg 36%
    11:00 +19°C° 0 mm 4 m/S 754 mmHg 34%
    12:00 +19°C° 0 mm 4 m/S 754 mmHg 32%
    13:00 +20°C° 0 mm 4 m/S 753 mmHg 30%
    14:00 +19°C° 0 mm 4 m/S 753 mmHg 31%
    15:00 +19°C° 0 mm 5 m/S 753 mmHg 31%
    16:00 +19°C° 0 mm 5 m/S 753 mmHg 31%
    17:00 +17°C° 0 mm 4 m/S 753 mmHg 36%
    18:00 +14°C° 0 mm 3 m/S 753 mmHg 41%
    19:00 +13°C° 0 mm 2 m/S 753 mmHg 46%
    20:00 +12°C° 0 mm 2 m/S 754 mmHg 49%
    21:00 +12°C° 0 mm 2 m/S 754 mmHg 51%
    22:00 +10°C° 0 mm 2 m/S 754 mmHg 54%
    23:00 +9°C° 0 mm 2 m/S 755 mmHg 57%

    Morgen, 20 September, Freitag

    Zeit Temperatur Niederschläge Wind Luftdruck Luftfeuchtigkeit
    00:00 +9°C° 0 mm 2 m/S 755 mmHg 60%
    01:00 +8°C° 0 mm 2 m/S 755 mmHg 64%
    02:00 +8°C° 0 mm 2 m/S 755 mmHg 67%
    03:00 +7°C° 0 mm 2 m/S 755 mmHg 70%
    04:00 +7°C° 0 mm 2 m/S 755 mmHg 73%
    05:00 +8°C° 0 mm 2 m/S 755 mmHg 71%
    06:00 +8°C° 0 mm 2 m/S 755 mmHg 68%
    07:00 +9°C° 0 mm 2 m/S 755 mmHg 66%
    08:00 +12°C° 0 mm 2 m/S 755 mmHg 57%
    09:00 +14°C° 0 mm 2 m/S 756 mmHg 48%
    10:00 +17°C° 0 mm 3 m/S 756 mmHg 39%
    11:00 +17°C° 0 mm 2 m/S 755 mmHg 35%
    12:00 +18°C° 0 mm 2 m/S 755 mmHg 32%
    13:00 +19°C° 0 mm 2 m/S 754 mmHg 28%
    14:00 +19°C° 0 mm 2 m/S 754 mmHg 27%
    15:00 +19°C° 0 mm 2 m/S 754 mmHg 27%
    16:00 +20°C° 0 mm 1 m/S 754 mmHg 27%
    17:00 +18°C° 0 mm 1 m/S 754 mmHg 32%
    18:00 +15°C° 0 mm 1 m/S 754 mmHg 37%
    19:00 +13°C° 0 mm 1 m/S 754 mmHg 42%
    20:00 +12°C° 0 mm 1 m/S 754 mmHg 44%
    21:00 +12°C° 0 mm 1 m/S 754 mmHg 46%
    22:00 +11°C° 0 mm 1 m/S 754 mmHg 48%
    23:00 +10°C° 0 mm 0 m/S 754 mmHg 49%

    übermorgen, 21 September, Samstag

    Zeit Temperatur Niederschläge Wind Luftdruck Luftfeuchtigkeit
    00:00 +9°C° 0 mm 0 m/S 755 mmHg 50%
    01:00 +9°C° 0 mm 0 m/S 755 mmHg 51%
    02:00 +10°C° 0 mm 1 m/S 755 mmHg 52%
    03:00 +9°C° 0 mm 1 m/S 754 mmHg 52%
    04:00 +9°C° 0 mm 1 m/S 754 mmHg 53%
    05:00 +10°C° 0 mm 1 m/S 754 mmHg 51%
    06:00 +11°C° 0 mm 1 m/S 754 mmHg 48%
    07:00 +12°C° 0 mm 2 m/S 754 mmHg 46%
    08:00 +14°C° 0 mm 2 m/S 754 mmHg 40%
    09:00 +17°C° 0 mm 3 m/S 754 mmHg 33%
    10:00 +19°C° 0 mm 4 m/S 754 mmHg 27%
    11:00 +20°C° 0 mm 4 m/S 754 mmHg 26%
    12:00 +21°C° 0 mm 4 m/S 754 mmHg 24%
    13:00 +22°C° 0 mm 4 m/S 753 mmHg 23%
    14:00 +22°C° 0 mm 4 m/S 752 mmHg 23%
    15:00 +21°C° 0 mm 3 m/S 752 mmHg 23%
    16:00 +21°C° 0 mm 3 m/S 751 mmHg 24%
    17:00 +19°C° 0 mm 3 m/S 751 mmHg 28%
    18:00 +17°C° 0 mm 3 m/S 751 mmHg 33%
    19:00 +15°C° 0 mm 2 m/S 751 mmHg 38%
    20:00 +14°C° 0 mm 2 m/S 751 mmHg 38%
    21:00 +13°C° 0 mm 2 m/S 751 mmHg 38%
    22:00 +13°C° 0 mm 2 m/S 751 mmHg 38%
    23:00 +11°C° 0 mm 3 m/S 751 mmHg 38%

    22 September, Sonntag

    Zeit Temperatur Niederschläge Wind Luftdruck Luftfeuchtigkeit
    00:00 +11°C° 0 mm 3 m/S 750 mmHg 37%
    01:00 +11°C° 0 mm 3 m/S 750 mmHg 36%
    02:00 +10°C° 0 mm 3 m/S 750 mmHg 35%
    03:00 +10°C° 0 mm 2 m/S 749 mmHg 35%
    04:00 +10°C° 0 mm 2 m/S 749 mmHg 34%
    05:00 +10°C° 0 mm 2 m/S 749 mmHg 34%
    06:00 +12°C° 0 mm 2 m/S 749 mmHg 33%
    07:00 +13°C° 0 mm 2 m/S 748 mmHg 32%
    08:00 +16°C° 0 mm 2 m/S 748 mmHg 30%
    09:00 +19°C° 0 mm 3 m/S 748 mmHg 28%
    10:00 +22°C° 0 mm 3 m/S 748 mmHg 25%
    11:00 +24°C° 0 mm 3 m/S 748 mmHg 27%
    12:00 +25°C° 0 mm 4 m/S 747 mmHg 29%
    13:00 +27°C° 0 mm 4 m/S 747 mmHg 31%
    14:00 +26°C° 0 mm 4 m/S 746 mmHg 35%
    15:00 +25°C° 0 mm 3 m/S 746 mmHg 39%
    16:00 +24°C° 0 mm 3 m/S 745 mmHg 43%
    17:00 +22°C° 0 mm 3 m/S 745 mmHg 49%
    18:00 +21°C° 0 mm 3 m/S 745 mmHg 55%
    19:00 +20°C° 0 mm 3 m/S 745 mmHg 61%
    20:00 +20°C° 0 mm 3 m/S 745 mmHg 61%
    21:00 +20°C° 0 mm 3 m/S 745 mmHg 62%
    22:00 +20°C° 0 mm 3 m/S 745 mmHg 62%
    23:00 +19°C° 0 mm 3 m/S 744 mmHg 64%

    23 September, Montag

    Zeit Temperatur Niederschläge Wind Luftdruck Luftfeuchtigkeit
    00:00 +18°C° 0 mm 3 m/S 744 mmHg 65%
    01:00 +18°C° 0 mm 3 m/S 744 mmHg 66%
    02:00 +17°C° 0 mm 3 m/S 743 mmHg 69%
    03:00 +17°C° 0 mm 3 m/S 743 mmHg 71%
    04:00 +17°C° 0 mm 3 m/S 743 mmHg 74%
    05:00 +17°C° 0.1 mm 3 m/S 743 mmHg 73%
    06:00 +18°C° 0.1 mm 4 m/S 743 mmHg 72%
    07:00 +18°C° 0.1 mm 4 m/S 742 mmHg 71%
    08:00 +18°C° 0.9 mm 3 m/S 743 mmHg 77%
    09:00 +18°C° 0.9 mm 3 m/S 743 mmHg 83%
    10:00 +18°C° 0.9 mm 2 m/S 743 mmHg 89%
    11:00 +19°C° 0.2 mm 2 m/S 743 mmHg 85%
    12:00 +20°C° 0.2 mm 2 m/S 742 mmHg 82%
    13:00 +20°C° 0.2 mm 2 m/S 742 mmHg 78%
    14:00 +21°C° 0 mm 3 m/S 742 mmHg 73%
    15:00 +21°C° 0 mm 4 m/S 742 mmHg 68%
    16:00 +22°C° 0 mm 4 m/S 742 mmHg 63%
    17:00 +20°C° 0.6 mm 4 m/S 742 mmHg 70%
    18:00 +17°C° 0.6 mm 5 m/S 743 mmHg 77%
    19:00 +15°C° 0.6 mm 5 m/S 743 mmHg 85%
    20:00 +15°C° 0 mm 5 m/S 743 mmHg 85%
    21:00 +14°C° 0 mm 5 m/S 744 mmHg 85%
    22:00 +14°C° 0 mm 5 m/S 744 mmHg 85%
    23:00 +14°C° 0.1 mm 4 m/S 744 mmHg 85%

    24 September, Dienstag

    Zeit Temperatur Niederschläge Wind Luftdruck Luftfeuchtigkeit
    00:00 +14°C° 0.1 mm 4 m/S 744 mmHg 86%
    01:00 +14°C° 0.1 mm 3 m/S 745 mmHg 86%
    02:00 +14°C° 0 mm 3 m/S 745 mmHg 87%
    03:00 +14°C° 0 mm 3 m/S 744 mmHg 87%
    04:00 +14°C° 0 mm 3 m/S 744 mmHg 88%
    05:00 +14°C° 0.1 mm 3 m/S 745 mmHg 85%
    06:00 +14°C° 0.1 mm 4 m/S 745 mmHg 83%
    07:00 +14°C° 0.1 mm 4 m/S 745 mmHg 81%
    08:00 +16°C° 0 mm 5 m/S 745 mmHg 71%
    09:00 +17°C° 0 mm 6 m/S 745 mmHg 62%
    10:00 +18°C° 0 mm 7 m/S 746 mmHg 52%
    11:00 +20°C° 0 mm 6 m/S 745 mmHg 48%
    12:00 +21°C° 0 mm 6 m/S 745 mmHg 44%
    13:00 +22°C° 0 mm 6 m/S 745 mmHg 40%
    14:00 +22°C° 0 mm 6 m/S 745 mmHg 41%
    15:00 +21°C° 0 mm 5 m/S 745 mmHg 42%
    16:00 +21°C° 0 mm 5 m/S 744 mmHg 42%
    17:00 +20°C° 0 mm 4 m/S 745 mmHg 47%
    18:00 +18°C° 0 mm 3 m/S 745 mmHg 52%
    19:00 +17°C° 0 mm 3 m/S 745 mmHg 56%
    20:00 +16°C° 0 mm 2 m/S 745 mmHg 60%
    21:00 +15°C° 0 mm 2 m/S 745 mmHg 63%
    22:00 +15°C° 0 mm 2 m/S 746 mmHg 67%
    23:00 +14°C° 0 mm 2 m/S 746 mmHg 69%
    Mehr zeigen